Total_Precipitation_Accumulation
1.46 1.43 1.44 1.52 1.56 1.61 1.59 1.49 1.36 1.30 1.33 1.43 1.50 1.50 1.49 1.51 1.47 1.43 1.34 1.28 1.28 1.28 1.33 1.40 1.35 1.31 1.37 1.32 1.25 1.23 1.25 1.40 1.43 0.82 0.60 0.63 0.84 1.03 1.09 1.12 1.16 1.11 1.06
1.45 1.53 1.49 1.51 1.62 1.64 1.58 1.51 1.44 1.38 1.34 1.38 1.50 1.61 1.59 1.54 1.51 1.49 1.46 1.45 1.48 1.43 1.36 1.38 1.40 1.39 1.43 1.41 1.40 1.33 1.22 1.19 1.32 1.11 0.77 0.75 0.88 1.05 1.12 1.17 1.24 1.22 1.14
1.26 1.43 1.55 1.58 1.63 1.68 1.63 1.53 1.52 1.52 1.48 1.42 1.48 1.60 1.64 1.62 1.58 1.49 1.48 1.51 1.58 1.64 1.60 1.58 1.50 1.50 1.51 1.46 1.47 1.42 1.31 1.21 1.22 1.24 0.99 0.85 0.92 1.02 1.16 1.25 1.29 1.28 1.28
1.07 1.26 1.39 1.51 1.63 1.67 1.67 1.63 1.56 1.54 1.52 1.50 1.46 1.50 1.60 1.69 1.75 1.73 1.74 1.68 1.67 1.70 1.71 1.72 1.68 1.67 1.62 1.57 1.59 1.55 1.50 1.52 1.47 1.47 1.29 1.08 1.03 1.05 1.23 1.44 1.53 1.38 1.35
0.94 1.10 1.28 1.39 1.57 1.65 1.64 1.63 1.65 1.66 1.55 1.52 1.49 1.44 1.49 1.74 2.09 2.05 1.94 1.86 1.73 1.64 1.58 1.58 1.64 1.81 1.88 1.94 1.97 1.86 1.84 1.95 1.90 1.81 1.60 1.38 1.23 1.26 1.37 1.46 1.69 1.65 1.54
0.94 0.97 1.16 1.38 1.52 1.61 1.62 1.65 1.66 1.66 1.61 1.54 1.48 1.44 1.47 1.69 2.21 2.27 1.92 1.67 1.54 1.51 1.50 1.41 1.40 1.60 1.70 1.85 1.99 2.00 2.07 2.25 2.32 2.22 1.93 1.65 1.36 1.30 1.42 1.65 1.87 2.06 1.98
0.83 0.86 1.00 1.19 1.37 1.49 1.55 1.63 1.74 1.73 1.66 1.59 1.49 1.42 1.37 1.47 1.94 2.04 1.82 1.49 1.34 1.32 1.34 1.33 1.29 1.31 1.44 1.38 1.57 1.69 1.74 1.94 2.19 2.30 2.26 1.79 1.51 1.39 1.69 1.91 1.95 2.08 1.97
0.75 0.74 0.81 0.95 1.12 1.31 1.48 1.56 1.65 1.75 1.73 1.62 1.52 1.43 1.39 1.37 1.74 1.91 1.77 1.38 1.22 1.16 1.14 1.12 1.12 1.15 1.26 1.43 1.52 1.53 1.45 1.53 1.82 2.02 2.19 2.00 1.79 1.75 2.02 2.33 2.44 2.46 2.23
0.71 0.72 0.74 0.80 0.93 1.10 1.28 1.41 1.52 1.63 1.66 1.61 1.52 1.37 1.32 1.33 1.57 1.86 1.84 1.43 1.26 1.11 1.06 1.04 1.01 1.00 1.32 1.58 1.53 1.46 1.33 1.33 1.51 1.80 2.03 2.13 2.21 2.34 2.51 2.81 3.00 2.97 2.77
0.71 0.72 0.73 0.76 0.82 0.93 1.09 1.25 1.40 1.51 1.57 1.56 1.53 1.38 1.27 1.24 1.45 1.81 1.99 1.51 1.30 1.16 1.06 1.01 1.12 1.18 1.42 1.53 1.43 1.49 1.53 1.37 1.30 1.37 1.47 1.59 1.67 1.85 2.24 2.52 2.79 2.97 2.91
0.68 0.68 0.70 0.71 0.74 0.82 0.98 1.12 1.28 1.40 1.50 1.49 1.43 1.38 1.27 1.24 1.30 1.58 1.98 1.68 1.37 1.26 1.20 1.13 1.08 1.26 1.33 1.40 1.46 1.46 1.62 1.50 1.38 1.46 1.46 1.41 1.43 1.57 1.77 2.07 2.46 2.83 3.03
0.62 0.62 0.64 0.65 0.68 0.76 0.89 1.03 1.16 1.30 1.43 1.44 1.36 1.39 1.36 1.30 1.30 1.48 1.76 1.78 1.55 1.29 1.20 1.07 1.07 1.25 1.29 1.37 1.38 1.49 1.60 1.55 1.44 1.45 1.40 1.36 1.39 1.48 1.60 1.80 2.08 2.35 2.52
0.58 0.59 0.60 0.63 0.67 0.70 0.77 0.92 1.12 1.22 1.32 1.39 1.30 1.30 1.37 1.37 1.39 1.61 1.63 1.65 1.61 1.42 1.36 1.38 1.29 1.32 1.32 1.26 1.32 1.38 1.38 1.35 1.43 1.45 1.34 1.25 1.25 1.36 1.45 1.58 1.75 1.98 2.16
0.56 0.59 0.58 0.62 0.68 0.67 0.70 0.81 1.00 1.17 1.26 1.35 1.28 1.21 1.25 1.35 1.53 1.70 1.63 1.53 1.57 1.52 1.48 1.49 1.44 1.39 1.30 1.25 1.25 1.18 1.16 1.25 1.34 1.33 1.23 1.12 1.12 1.24 1.38 1.51 1.68 1.85 2.12
0.55 0.60 0.60 0.59 0.65 0.69 0.75 0.82 0.92 1.06 1.29 1.48 1.39 1.31 1.42 1.61 1.75 1.93 1.81 1.67 1.67 1.68 1.60 1.50 1.39 1.35 1.35 1.27 1.17 1.11 1.10 1.18 1.23 1.16 1.15 1.14 1.14 1.22 1.31 1.42 1.66 1.82 2.03
0.57 0.58 0.61 0.64 0.65 0.66 0.75 0.88 1.00 1.05 1.16 1.20 1.29 1.37 1.36 1.61 1.70 1.66 1.63 1.58 1.64 1.74 1.65 1.50 1.29 1.20 1.20 1.17 1.14 1.11 1.07 1.09 1.09 1.11 1.17 1.19 1.21 1.26 1.31 1.36 1.58 1.79 1.89
0.62 0.61 0.64 0.66 0.64 0.65 0.70 0.83 0.99 1.06 1.12 1.14 1.17 1.27 1.35 1.50 1.56 1.54 1.53 1.46 1.44 1.45 1.40 1.28 1.16 1.11 1.06 1.03 1.06 1.04 1.03 1.02 1.06 1.12 1.14 1.13 1.16 1.21 1.26 1.33 1.46 1.60 1.69
0.62 0.67 0.70 0.68 0.67 0.69 0.75 0.84 0.96 1.06 1.14 1.17 1.21 1.32 1.39 1.44 1.48 1.52 1.56 1.53 1.49 1.35 1.18 1.15 1.15 1.10 1.06 1.06 1.07 1.07 1.04 1.03 1.10 1.15 1.15 1.11 1.13 1.21 1.26 1.27 1.33 1.47 1.58
0.61 0.64 0.70 0.73 0.72 0.73 0.78 0.87 0.96 1.04 1.10 1.17 1.24 1.43 1.55 1.55 1.54 1.57 1.53 1.35 1.25 1.19 1.14 1.10 1.11 1.15 1.15 1.12 1.10 1.10 1.12 1.12 1.11 1.17 1.16 1.12 1.13 1.20 1.24 1.21 1.27 1.40 1.49
0.61 0.69 0.75 0.77 0.76 0.78 0.82 0.90 0.98 1.06 1.10 1.16 1.22 1.34 1.52 1.60 1.58 1.60 1.47 1.31 1.22 1.15 1.11 1.10 1.10 1.14 1.19 1.18 1.16 1.16 1.18 1.17 1.19 1.21 1.16 1.12 1.13 1.18 1.23 1.22 1.24 1.28 1.31
0.64 0.67 0.74 0.76 0.77 0.82 0.88 0.94 1.02 1.10 1.12 1.13 1.16 1.25 1.48 1.49 1.40 1.33 1.36 1.36 1.31 1.22 1.15 1.15 1.12 1.12 1.14 1.15 1.14 1.14 1.17 1.16 1.17 1.19 1.12 1.04 1.05 1.13 1.16 1.18 1.16 1.13 1.15
0.67 0.70 0.72 0.75 0.79 0.87 0.95 0.99 1.06 1.12 1.11 1.11 1.14 1.23 1.34 1.20 1.16 1.17 1.23 1.29 1.29 1.24 1.17 1.20 1.18 1.12 1.13 1.17 1.18 1.19 1.19 1.16 1.12 1.11 1.08 1.01 1.00 1.04 1.05 1.06 1.04 1.03 1.05
0.69 0.74 0.78 0.79 0.81 0.92 0.98 0.96 1.02 1.09 1.12 1.11 1.11 1.14 1.19 1.18 1.15 1.13 1.18 1.22 1.23 1.21 1.16 1.17 1.16 1.10 1.05 1.08 1.12 1.21 1.28 1.23 1.13 1.10 1.13 1.07 1.01 0.99 0.95 0.93 0.89 0.93 0.98
0.73 0.78 0.84 0.88 0.89 0.90 0.95 0.98 1.01 1.08 1.13 1.12 1.09 1.08 1.15 1.19 1.17 1.14 1.13 1.15 1.18 1.17 1.13 1.15 1.14 1.09 1.02 1.01 1.01 1.05 1.11 1.15 1.15 1.13 1.12 1.10 1.03 0.93 0.91 0.90 0.84 0.85 0.93
0.77 0.82 0.89 0.95 0.97 0.98 0.99 1.01 1.03 1.08 1.13 1.11 1.08 1.08 1.08 1.12 1.14 1.13 1.10 1.11 1.13 1.10 1.04 1.05 1.11 1.10 1.01 0.96 0.94 0.95 1.06 1.12 1.15 1.21 1.29 1.25 1.08 0.92 0.88 0.88 0.86 0.86 0.92
0.78 0.83 0.91 0.96 0.98 1.02 1.05 1.07 1.07 1.08 1.11 1.09 1.06 1.07 1.08 1.12 1.15 1.13 1.11 1.12 1.16 1.12 1.04 1.02 1.03 1.01 0.96 0.94 0.93 0.97 1.01 1.03 1.08 1.20 1.33 1.39 1.20 0.99 0.91 0.90 0.86 0.87 0.90